User: anonymous   Login
Location: Unspecified
(0.0000°N, 0.0000°E)
Time: 12:53:37
(UTC+01:00)
Language:

ARIANE 44L R/B - Orbit

View from above orbital plane
View from above orbital plane
View from above satellite
View from above satellite

Ground track
Ground track

The orbit data is extracted from the following two-line orbital elements,

1 26901U 01039B   16341.82142878 +.00001566 +00000-0 +60997-3 0  9998
2 26901 007.1447 225.5325 6887342 158.2751 257.7575 02.77684645138250
Epoch (UTC): 06 December 2016 19:42:51
Eccentricity: 0.6887342
inclination: 7.1447°
perigee height: 277 km
apogee height: 29729 km
right ascension of ascending node: 225.5325°
argument of perigee: 158.2751°
revolutions per day: 2.77684645
mean anomaly at epoch: 257.7575°
orbit number at epoch: 13825

The dashed part of the orbit path shows where the satellite is in the earth's shadow,  

DLR